STARLINK-1234, 45190

Orbit data source: Space-Track

STARLINK-1234, 45190 is a payload satellite owned by SpaceX/Seattle (US) in LEO that was launched on Mon, 17 Feb 2020 UTC via an FALCON 9 launch vehicle from the Air Force Eastern Test Range (AFETR). Payload-class satellites include a variety of spacecraft equipped with specific instruments for various scientific and technological missions. These include communications satellites like Starlink; space stations such as the ISS; scientific satellites like the Hubble; Earth observation satellites from companies like Planet Labs, Umbra, and HawkEye 360; GPS; miniature CubeSats for education and research; and military/defense satellites.

Loading next visibility...
Identifier
45190, 2020-012N
Orbit
LEO
Country
Flag of USUS
Related business
Manufacturer
SpaceX/Seattle
Mission
Partially operational Commercial Communications
Bus & Motor
STARLINK, Unknown motor
Mass
260 kg wet, ~248 kg dry
Launch date (UTC)
2020-02-17 (6 years ago)
Launch vehicle
FALCON 9
Launch site
Air Force Eastern Test Range (AFETR)
Object type
Payload
Rocket body
Debris
Shape & HBR
Box + 1 Pan, 10.1 m
Radar Cross Section
13.562 m², Large (>1 m²)

Expand to show TLE details & history
Last TLE update: 21 hours ago

TLE from 21 hours ago
0 STARLINK-1234
1 45190U 20012N   26124.08749653  .00068162  00000-0  55509-3 0  9991
2 45190  53.0412  52.7087 0008639 106.1627 254.0341 15.69998618344567
Epoch: 2026-05-04T02:05Z
TLE epoch observation values (Epoch: 2026-05-04T02:05:59.700Z)
Latitude
0.00001°
Longitude
159.22823°
Altitude
361.409 km
Speed
7.693 km/s
True Right ascension
03h 30m 50s
True Declination
0° 00' 00"
Sunlit
Object was in daylight at epoch
Visualization orbit readout
Latitude
Unknown
Longitude
Unknown
Altitude
Unknown
Speed
Unknown
Apparent Right ascension
Unknown
Apparent Declination
Unknown
Sunlit
N/A
Visualization observer readout
Local Sidereal Time
06:42:03
Azimuth
Unknown
Elevation
Unknown
Doppler factor
Unknown
Orbital elements
Apogee altitude
365.002 km
Perigee altitude
353.361 km
Semi-major axis
6,737.318 km
Eccentricity
0.00086
Inclination
53.0412°
RAAN
52.7087°
Arg. of periapsis
106.1627°
True anomaly
253.93895°
Mean anomaly
254.0341°
Eccentric anomaly
253.98652°
Mean motion
3.92476 °/min
Orbital period
91.73 mins
BSTAR
0.00055509
Loading maneuver chart data...
Computing Atmospheric mass density...
Loading historical data...
Loading historical data...
Loading historical data...
Loading historical data...
Loading historical data...
Loading historical data...
Loading historical data...

Documentation

Showing up to 5 results
|